Regional Weather Roundup
Issued by NWS

Home | Current Version | Previous Version | Text Only | Print | Product List | Glossary Off
Versions: 1 2 3 4 5 6 7 8 9 10 11 12 13 14 15 16 17 18 19 20 21 22 23 24 25 26 27 28 29 30 31 32 33 34 35 36 37 38 39 40 41 42 43 44 45 46 47 48 49 50

317
ASUS45 KBOU 240610
RWRCO

WEATHER ROUNDUP FOR COLORADO
NATIONAL WEATHER SERVICE DENVER/BOULDER CO
1200 AM MDT SAT SEP 24 2016

NOTE: "FAIR" INDICATES FEW OR NO CLOUDS BELOW 12000 FEET WITH NO
SIGNIFICANT WEATHER AND/OR OBSTRUCTIONS TO VISIBILITY.

COZ001>005-013-030-031-240700-
...NORTHWEST COLORADO...

CITY           SKY/WX    TMP DP  RH WIND       PRES   REMARKS
CRAIG          LGT RAIN  42  34  73 S7        30.06R
HAYDEN         CLOUDY    39  30  70 SE5       30.07R
MEEKER         LGT RAIN  42  37  82 CALM      30.07S
MOUNT WERNER   NOT AVBL
STEAMBOAT SPGS CLOUDY    38  36  90 CALM      30.07R
WALDEN           N/A     34  28  80 SE7       30.07S WCI  28
$$

COZ006>008-011-240700-
...WEST CENTRAL VALLEYS...

CITY           SKY/WX    TMP DP  RH WIND       PRES   REMARKS
GRAND JUNCTION LGT RAIN  49  39  68 E9        30.06R
MONTROSE       FAIR      42  37  82 SE7       30.12S
EAGLE          FAIR      41  36  81 CALM      30.11S
RIFLE          CLOUDY    43  40  89 SW5       30.08S
DELTA          CLOUDY    47  40  78 NE9       30.10S
NUCLA          FAIR      43  34  70 E8        30.13F
$$

COZ017>023-064>068-240700-
...SOUTHWEST COLORADO...

CITY           SKY/WX    TMP DP  RH WIND       PRES   REMARKS
DURANGO        FAIR      34  31  88 CALM      30.18R
CORTEZ         CLOUDY    38  36  92 CALM      30.14R
PAGOSA SPRINGS FAIR      32  32 100 CALM      30.22R FOG
TELLURIDE      FAIR      32  29  87 E6        30.22S WCI  27
WOLF CREEK PAS FAIR      21  19  93 MISG      30.29R
$$

COZ009-010-012-014-032>034-037-058>063-240700-
...CENTRAL COLORADO...

CITY           SKY/WX    TMP DP  RH WIND       PRES   REMARKS
ASPEN          FAIR      35  33  92 S7        30.12R WCI  29
BUENA VISTA    FAIR      34  30  85 CALM      30.09S
COPPER MTN     LGT SNOW  28  19  69 MISG      30.17S
BERTHOUD PASS  CLOUDY    19   5  53 NW23G33   30.16R WCI   2
COTTONWOOD PAS FAIR      36  19  51 NW8G22    30.12S
GUNNISON       FAIR      30  30 100 S7        30.17R WCI  23
KREMMLING      CLOUDY    41  30  65 SW9       30.11R
LEADVILLE      CLOUDY    28  22  78 N8        30.15R WCI  20
MONARCH PASS   FOG       23  21  93 W28G33    30.28S VSB<1/4 WCI   6
SALIDA         FAIR      40  26  57 N3        30.18R
SUNLIGHT       CLOUDY    30  28  93 MISG      30.19R
WILKERSON PASS MOCLDY    25  23  93 W8G16     30.14F WCI  16
$$

COZ069>075-240700-
...SAN LUIS VALLEY/SANGRE DE CRISTO MOUNTAINS...

CITY           SKY/WX    TMP DP  RH WIND       PRES   REMARKS
ALAMOSA        FAIR      33  32  96 SW6       30.17R WCI  28
LA VETA PASS   FAIR      32  27  80 MISG      30.15F
SAGUACHE       NOT AVBL
$$

COZ035-036-038>040-240700-
...NORTHERN COLORADO FRONT RANGE...

CITY           SKY/WX    TMP DP  RH WIND       PRES   REMARKS
DENVER INTL AP MOCLDY    56  32  40 E10       29.93R
DMNS CITY PARK   N/A     56  25  29 SW9       29.91R
AURORA         MOCLDY    54  26  34 S14G23    29.93R
FRONT RANGE AP CLOUDY    57  30  35 S12G23    29.95R
ERIE MUNI ARPT CLOUDY    57  31  37 N9        29.91R
BOULDER MUN AP CLOUDY    59  21  23 SW15G21   29.90R
CENTENNIAL     FAIR      53  24  32 SW23G31   29.93R
BROOMFIELD     CLOUDY    57  21  24 W12G23    29.93R
FORT COLLINS   MOCLDY    52  37  58 W17G24    29.89S
LONGMONT       CLOUDY    56  32  40 N3        29.92R
$$

COZ041-046-047-076>085-087-088-240700-
...PIKES PEAK/PALMER DIVIDE AND SOUTHERN FOOTHILLS...

CITY           SKY/WX    TMP DP  RH WIND       PRES   REMARKS
COLO. SPRINGS  FAIR      54  19  25 W13       29.99R
A. F. ACADEMY  FAIR      49  21  33 W17G30    29.98S
SCHRIEVER AFB  NOT AVBL
ELLICOTT       FAIR       1 N/A N/A W14       29.98R WCI -17
FALCON         FAIR      49  19  29 W22G35    30.02R
FORT CARSON    FAIR      53  21  28 SW8       29.98R
LIMON          FAIR      49  29  46 SW6       29.93R
MONUMENT HILL  FAIR      45  23  42 W15G24    30.01S
TRINIDAD       FAIR      55  22  27 W15       30.00S
$$

COZ042>045-048>051-090-091-240700-
...NORTHEAST COLORADO...

CITY           SKY/WX    TMP DP  RH WIND       PRES   REMARKS
GREELEY ARPT   CLOUDY    48  43  81 NW21G26   29.88R
AKRON          CLOUDY    50  45  83 N30G37    29.87R
BURLINGTON     FAIR      57  49  74 S9        29.89S
WRAY           LGT RAIN  63  55  77 S16       29.82R
STERLING       MOCLDY    54  43  66 N14G23    29.88R
HOLYOKE        LGT RAIN  61  50  67 NW14G25   29.89R
FORT MORGAN    FAIR      54  35  47 N25G40    29.85F
$$

COZ086-089-092>099-240700-
...SOUTHEAST COLORADO...

CITY           SKY/WX    TMP DP  RH WIND       PRES   REMARKS
PUEBLO         FAIR      58  27  30 W25G32    29.95R
LA JUNTA       FAIR      61  25  25 W16       29.95R
LAMAR          FAIR      58  36  43 SW8       29.92R
SPRINGFIELD    NOT AVBL
$$




USA.gov is the U.S. government's official web portal to all federal, state and local government web resources and services.